This demonstration page uses our WeatherBlox Daily Observations layout. Learn more.

Left ArrowRight Arrow

Hourly Observations for February 4, 2016

Temp ( °F °C ) Dew Point ( °F °C ) Humidity (%) Winds ( mph kmh ) Pressure ( in mb ) Visibility ( mi km ) Precip ( " mm )
12:15 am 00:15 Clear 16 -8.7 10 -12 77 77 W 12 19 30.39 1029 10 16 N/A
12:35 am 00:35 Clear 16 -9 10 -12.4 77 77 W 10 17 30.39 1029 10 16 N/A
12:55 am 00:55 Clear 15 -9.4 10 -12.5 78 78 W 10 17 30.39 1029 10 16 N/A
1:15 am 01:15 Clear 15 -9.6 9 -13 77 77 W 10 17 30.36 1028 10 16 N/A
1:35 am 01:35 Clear 14 -9.8 8 -13.2 76 76 W 9 15 30.36 1028 10 16 N/A
1:55 am 01:55 Clear 14 -10 8 -13.5 76 76 W 9 15 30.36 1028 10 16 N/A
2:15 am 02:15 Clear 13 -10.5 7 -13.9 76 76 W 9 15 30.36 1028 10 16 N/A
2:35 am 02:35 Clear 13 -10.5 7 -14 76 76 W 9 15 30.36 1028 10 16 N/A
2:55 am 02:55 Clear 13 -10.6 6 -14.3 75 75 W 9 15 30.39 1029 10 16 N/A
3:15 am 03:15 Clear 13 -10.8 6 -14.6 74 74 W 9 15 30.39 1029 10 16 N/A
3:35 am 03:35 Clear 12 -11.3 5 -15 74 74 W 9 15 30.39 1029 10 16 N/A
3:55 am 03:55 Clear 11 -11.6 5 -15.2 75 75 W 10 17 30.39 1029 10 16 N/A
4:15 am 04:15 Clear 11 -11.8 4 -15.5 74 74 W 10 17 30.39 1029 10 16 N/A
4:35 am 04:35 Clear 11 -11.6 4 -15.5 73 73 W 10 17 30.39 1029 10 16 N/A
4:55 am 04:55 Clear 11 -11.5 4 -15.6 72 72 W 10 17 30.39 1029 10 16 N/A
5:15 am 05:15 Clear 12 -11 4 -15.5 70 70 W 13 20 30.39 1029 10 16 N/A
5:35 am 05:35 Clear 12 -11.2 3 -15.9 69 69 W 12 19 30.39 1029 10 16 N/A
5:55 am 05:55 Clear 11 -11.7 3 -16 71 71 W 12 19 30.36 1028 10 16 N/A
6:15 am 06:15 Clear 11 -11.5 3 -16.2 68 68 W 13 20 30.33 1027 10 16 N/A
6:35 am 06:35 Clear 13 -10.7 3 -16.1 65 65 W 13 20 30.33 1027 10 16 N/A
6:55 am 06:55 Clear 11 -11.5 2 -16.5 67 67 W 12 19 30.33 1027 10 16 N/A
7:15 am 07:15 Clear 11 -11.6 2 -16.6 67 67 W 12 19 30.39 1029 10 16 N/A
7:35 am 07:35 Clear 11 -11.6 2 -16.6 67 67 W 10 17 30.39 1029 10 16 N/A
7:55 am 07:55 Sunny 12 -11.3 2 -16.5 66 66 W 10 17 30.39 1029 10 16 N/A
8:15 am 08:15 Sunny 10 -12 2 -16.8 68 68 W 13 20 30.39 1029 10 16 N/A
8:35 am 08:35 Sunny 10 -12 2 -16.9 67 67 W 12 19 30.39 1029 10 16 N/A
8:55 am 08:55 Sunny 10 -12.2 1 -17 68 68 W 13 20 30.39 1029 10 16 N/A
9:15 am 09:15 Sunny 11 -11.4 3 -16.3 67 67 W 10 17 30.42 1030 10 16 N/A
9:35 am 09:35 Sunny 13 -10.7 3 -15.9 66 66 W 12 19 30.42 1030 10 16 N/A
9:55 am 09:55 Sunny 14 -10.2 5 -15 68 68 W 8 13 30.39 1029 10 16 N/A
10:15 am 10:15 Sunny 16 -9 6 -14.5 65 65 W 10 17 30.39 1029 10 16 N/A
10:35 am 10:35 Sunny 17 -8.4 7 -14 64 64 WNW 10 17 30.39 1029 10 16 N/A
10:55 am 10:55 Sunny 18 -7.8 8 -13.2 66 66 WNW 8 13 30.39 1029 10 16 N/A
11:15 am 11:15 Sunny 19 -7.4 9 -12.7 66 66 WNW 8 13 30.36 1028 10 16 N/A
11:35 am 11:35 Sunny 20 -6.5 10 -12 65 65 WNW 9 15 30.36 1028 10 16 N/A
11:55 am 11:55 Sunny 22 -5.8 12 -11.1 67 67 WNW 8 13 30.39 1029 10 16 N/A
12:15 pm 12:15 Sunny 24 -4.5 14 -10.1 65 65 WNW 5 7 30.36 1028 10 16 N/A
12:35 pm 12:35 Sunny 26 -3.6 15 -9.5 64 64 WNW 10 17 30.33 1027 10 16 N/A
12:55 pm 12:55 Sunny 26 -3.1 14 -9.8 60 60 NW 10 17 30.33 1027 10 16 N/A
1:15 pm 13:15 Sunny 27 -2.9 15 -9.4 61 61 WNW 9 15 30.33 1027 10 16 N/A
1:35 pm 13:35 Sunny 27 -2.7 15 -9.2 61 61 NW 8 13 30.33 1027 10 16 N/A
1:55 pm 13:55 Sunny 27 -2.6 16 -8.9 62 62 NW 7 11 30.33 1027 10 16 N/A
2:15 pm 14:15 Sunny 27 -2.6 16 -8.8 63 63 NW 7 11 30.33 1027 10 16 N/A
2:35 pm 14:35 Sunny 28 -2.3 16 -8.7 62 62 NW 5 7 30.33 1027 10 16 N/A
2:55 pm 14:55 Sunny 28 -2.4 16 -9 61 61 NW 6 9 30.33 1027 10 16 N/A
3:15 pm 15:15 Sunny 28 -2.2 17 -8.4 63 63 NW 6 9 30.33 1027 10 16 N/A
3:35 pm 15:35 Sunny 28 -2.1 16 -8.8 61 61 WNW 5 7 30.33 1027 10 16 N/A
3:55 pm 15:55 Sunny 28 -2.3 16 -9 60 60 NW 3 6 30.33 1027 10 16 N/A
4:15 pm 16:15 Sunny 28 -2.3 16 -9.1 60 60 N N/A 30.36 1028 10 16 N/A
4:35 pm 16:35 Sunny 28 -2.5 16 -8.8 62 62 N N/A 30.36 1028 10 16 N/A
4:55 pm 16:55 Sunny 28 -2.5 16 -9.1 61 61 N N/A 30.36 1028 10 16 N/A
5:15 pm 17:15 Sunny 27 -2.9 16 -9.1 63 63 N N/A 30.36 1028 10 16 N/A
5:35 pm 17:35 Sunny 25 -3.8 17 -8.2 72 72 SW 5 7 30.36 1028 10 16 N/A
5:55 pm 17:55 Sunny 23 -5 17 -8.4 77 77 SW 3 6 30.39 1029 10 16 N/A
6:15 pm 18:15 Clear 20 -6.4 15 -9.6 78 78 N N/A 30.39 1029 10 16 N/A
6:35 pm 18:35 Clear 21 -6.1 16 -8.8 81 81 SSW 3 6 30.39 1029 10 16 N/A
6:55 pm 18:55 Clear 20 -6.5 16 -8.9 83 83 S 5 7 30.39 1029 10 16 N/A
7:15 pm 19:15 Clear 17 -8.2 12 -10.9 81 81 SSW 3 6 30.42 1030 10 16 N/A
7:35 pm 19:35 Clear 20 -6.5 15 -9.4 80 80 SW 5 7 30.42 1030 10 16 N/A
7:55 pm 19:55 Clear 20 -6.5 15 -9.5 80 80 SW 5 7 30.42 1030 10 16 N/A
8:15 pm 20:15 Clear 20 -6.8 15 -9.5 81 81 SSW 3 6 30.39 1029 10 16 N/A
8:35 pm 20:35 Clear 16 -9.1 11 -11.5 83 83 S 3 6 30.42 1030 10 16 N/A
8:55 pm 20:55 Clear 16 -8.9 13 -10.8 86 86 SW 5 7 30.45 1031 10 16 N/A
9:15 pm 21:15 Clear 18 -7.8 15 -9.7 86 86 N N/A 30.45 1031 10 16 N/A
9:35 pm 21:35 Clear 19 -7.2 15 -9.7 83 83 SSW 5 7 30.42 1030 10 16 N/A
9:55 pm 21:55 Clear 17 -8.5 12 -11 82 82 SSW 6 9 30.45 1031 10 16 N/A
10:15 pm 22:15 Clear 16 -8.9 13 -10.7 87 87 SW 3 6 30.45 1031 10 16 N/A
10:35 pm 22:35 Clear 15 -9.2 11 -11.5 84 84 SSW 5 7 30.45 1031 10 16 N/A
10:55 pm 22:55 Clear 15 -9.2 12 -11.3 85 85 N N/A 30.45 1031 10 16 N/A
11:15 pm 23:15 Clear 17 -8.6 12 -11 83 83 N N/A 30.45 1031 10 16 N/A
11:35 pm 23:35 Clear 18 -7.8 15 -9.5 88 88 SW 3 6 30.45 1031 10 16 N/A
11:55 pm 23:55 Partly Cloudy 16 -8.8 12 -11 84 84 SSW 5 7 30.45 1031 10 16 N/A

Powered by AerisWeather